SCP
0 0 0 0 0 0 0 0 -0 0 0 -0 -0 -0 -0 -0 0 -0 0 0 -0 -0 0 -0 -0 -0 0 0 0 -0 0 0 0 0 0 0 0 0 0 0 0 0 0 0 0 0 0 0 0 0 0 0 0 0
0 0 0 0 0 0 0 0 0 0 0 0 -0 -0 -0 -0 -0 -0 -0 0 0 -0 0 0 0 0 0 0 -0 0 0 0 -0 0 0 0 0 0 0 0 0 0 0 0 0 0 0 0 0 0 0 0 0 0
0 0 0 0 0 0 0 0 0 0 0 0 0 -0 -0 -0 -0 -0 -0 -0 -0 -0 0 0 0 0 0 0 0 -0 -0 -0 -0 -0 0 0 0 -0 0 0 0 0 0 0 0 0 0 0 0 0 0 0 0 0
0 0 0 0 0 0 0 0 0 0 0 0 0 0 -0 -0 -0 -0 -0 -0 -0 -0 -0 0 0 0 0 0 0 -0 -0 -0 -0 -0 0 0 0 0 0 0 0 0 0 0 0 0 0 0 0 0 0 0 0 0
0 0 0 0 0 0 0 0 0 0 0 0 0 0 0 0 0 0 0 0 -0 -0 -0 -0 0 0 0 0 -0 -0 -0 -0 -0 0 0 0 0 0 0 0 0 0 0 0 0 0 0 -0 0 0 0 0 0 0
0 0 0 0 0 0 0 0 0 0 0 0 0 0 0 0 0 0 -0 0 0 0 -0 -0 -0 0 0 0 -0 -0 -0 -0 -0 -0 -0 0 0 -0 0 0 0 0 0 0 0 -0 -0 -0 -0 -0 0 0 0 0
0 0 0 0 0 0 0 0 0 0 0 0 0 0 0 0 0 0 -0 0 0 0 -0 -0 -0 -0 0 0 0 -0 -0 -0 -0 -0 -0 0 -0 -0 -0 0 -0 -0 -0 -0 0 -0 -0 -0 -0 -0 0 0 0 0
0 0 0 0 0 0 0 0 0 0 0 0 0 0 0 0 0 0 0 0 0 0 0 -0 -0 -0 0 -0 -0 0 -0 0 -0 -0 -0 -0 -0 -0 -0 -0 0 -0 -0 0 0 0 0 0 0 0 0 0 0 0
0 0 0 0 0 0 0 0 0 0 0 0 0 0 0 0 0 0 0 0 0 0 0 0 0 -0 0 0 0 0 0 -0 0 0 0 -0 0 -0 -0 0 0 -0 0 0 0 0 0 0 0 0 0 0 0 0
0 0 0 0 0 0 0 0 0 0 0 0 0 0 0 0 0 0 0 0 0 0 0 0 0 0 0 0 0 0 0 0 0 0 0 -0 0 -0 -0 0 0 0 0 0 0 0 0 0 0 0 0 0 0 0
0 0 0 0 0 0 0 0 0 0 0 0 0 0 0 0 0 0 0 0 0 0 0 0 0 0 0 0 0 0 0 0 0 0 0 0 0 0 0 0 0 0 0 0 0 0 0 0 0 0 0 0 0 0
0 0 0 0 0 0 0 0 0 0 0 0 0 0 0 0 0 0 0 0 0 0 0 0 0 0 0 0 0 0 0 0 0 0 0 0 0 0 0 0 0 0 0 0 0 0 0 0 0 0 0 0 0 0
0 0 0 0 0 0 0 0 0 0 0 0 0 0 0 0 0 0 0 0 0 0 0 0 0 0 0 0 0 0 0 0 0 0 0 0 0 0 0 0 0 0 0 0 0 0 0 0 0 0 0 0 0 0
0 0 0 0 0 0 0 0 0 0 0 0 0 0 0 0 0 0 0 0 0 0 0 0 0 0 0 0 0 0 0 0 0 0 0 0 0 0 0 0 0 0 0 0 0 0 0 0 0 0 0 0 0 0
0 0 0 0 0 0 0 0 0 0 0 0 0 0 0 0 0 0 0 0 0 0 0 0 0 0 0 0 0 0 0 0 0 0 0 0 0 0 0 0 0 0 0 0 0 0 0 0 0 0 0 0 0 0
0 0 0 0 0 0 0 0 0 0 0 0 0 0 0 0 0 0 0 0 0 0 0 0 0 0 0 0 0 0 0 0 0 0 0 0 0 0 0 0 0 0 0 0 0 0 0 0 0 0 0 0 0 0
0 0 0 0 0 0 0 0 0 0 0 0 0 0 0 0 0 0 0 0 0 0 0 0 0 0 0 0 0 0 0 0 0 0 0 0 0 0 0 0 0 0 0 0 0 0 0 0 0 0 0 0 0 0
0 0 0 0 0 0 0 0 0 0 0 0 0 0 0 0 0 0 0 0 0 0 0 0 0 0 0 0 0 0 0 0 0 0 0 0 0 0 0 0 0 0 0 0 0 0 0 0 0 0 0 0 0 0
0 0 0 0 0 0 0 0 0 0 0 0 0 0 0 0 0 0 0 0 0 0 0 0 0 0 0 0 0 0 0 0 0 0 0 0 0 0 0 0 0 0 0 0 0 0 0 0 0 0 0 0 0 0
0 0 0 0 0 0 0 0 0 0 0 0 0 0 0 0 0 0 0 0 0 0 0 0 0 0 0 0 0 0 0 0 0 0 0 0 0 0 0 0 0 0 0 0 0 0 0 0 0 0 0 0 0 0
0 0 0 0 0 0 0 0 0 0 0 0 0 0 0 0 0 0 0 0 0 0 0 0 0 0 0 0 0 0 0 0 0 0 0 0 0 0 0 0 0 0 0 0 0 0 0 0 0 0 0 0 0 0
0 0 0 0 0 0 0 0 0 0 0 0 0 0 0 0 0 0 0 0 0 0 0 0 0 0 0 0 0 0 0 0 0 0 0 0 0 0 0 0 0 0 0 0 0 0 0 0 0 0 0 0 0 0
0 0 0 0 0 0 0 0 0 0 0 0 0 0 0 0 0 0 0 0 0 0 0 0 0 0 0 0 0 0 0 0 0 0 0 0 0 0 0 0 0 0 0 0 0 0 0 0 0 0 0 0 0 0
0 0 0 0 0 0 0 0 0 0 0 0 0 0 0 0 0 0 0 0 0 0 0 0 0 0 0 0 0 0 0 0 0 0 0 0 0 0 0 0 0 0 0 0 0 0 0 0 0 0 0 0 0 0
0 0 0 0 0 0 0 0 0 0 0 0 0 0 0 0 0 0 0 0 0 0 0 0 0 0 0 0 0 0 0 0 0 0 0 0 0 0 0 0 0 0 0 0 0 0 0 0 0 0 0 0 0 0
0 0 0 0 0 0 0 0 0 0 0 0 0 0 0 0 0 0 0 0 0 0 0 0 0 0 0 0 0 0 0 0 0 0 0 0 0 0 0 0 0 0 0 0 0 0 0 0 0 0 0 0 0 0
0 0 0 0 0 0 0 0 0 0 0 0 0 0 0 0 0 0 0 0 0 0 0 0 0 0 0 0 0 0 0 0 0 0 0 0 0 0 0 0 0 0 0 0 0 0 0 0 0 0 0 0 0 0
0 0 0 0 0 0 0 0 0 0 0 0 0 0 0 0 0 0 0 0 0 0 0 0 0 0 0 0 0 0 0 0 0 0 0 0 0 0 0 0 0 0 0 0 0 0 0 0 0 0 0 0 0 0
0 0 0 0 0 0 0 0 0 0 0 0 0 0 0 0 0 0 0 0 0 0 0 0 0 0 0 0 0 0 0 0 0 0 0 0 0 0 0 0 0 0 0 0 0 0 0 0 0 0 0 0 0 0
0 0 0 0 0 0 0 0 0 0 0 0 0 0 0 0 0 0 0 0 0 0 0 0 0 0 0 0 0 0 0 0 0 0 0 0 0 0 0 0 0 0 0 0 0 0 0 0 0 0 0 0 0 0
0 0 0 0 0 0 0 0 0 0 0 0 0 0 0 0 0 0 0 0 0 0 0 0 0 0 0 0 0 0 0 0 0 0 0 0 0 0 0 0 0 0 0 0 0 0 0 0 0 0 0 0 0 0
0 0 0 0 0 0 0 0 0 0 0 0 0 0 0 0 0 0 0 0 0 0 0 0 0 0 0 0 0 0 0 0 0 0 0 0 0 0 0 0 0 0 0 0 0 0 0 0 0 0 0 0 0 0
0 0 0 0 0 0 0 0 0 0 0 0 0 0 0 0 0 0 0 0 0 0 0 0 0 0 0 0 0 0 0 0 0 0 0 0 0 0 0 0 0 0 0 0 0 0 0 0 0 0 0 0 0 0
Wind_Speed_500mb
63 56 53 49 43 37 31 28 25 21 17 14 13 10 6 8 11 7 16 12 11 14 25 14 11 8 9 7 7 9 7 2 6 7 6 5 5 7 4 5 8 10 9 4 5 7 11 11 3 9 7 45 36 29
71 64 57 53 48 43 38 36 32 28 23 19 15 12 5 0 4 6 8 15 18 13 17 17 17 16 12 9 12 14 2 4 5 8 2 5 4 4 5 4 3 3 10 7 13 8 6 10 3 7 43 46 28 22
80 74 64 58 51 47 39 37 38 34 28 23 19 16 12 7 3 3 6 8 10 18 17 18 14 17 17 15 14 8 10 9 8 7 12 4 4 6 5 8 5 8 15 2 4 4 21 17 11 25 33 25 21 17
89 80 77 69 59 52 45 38 40 38 34 26 21 17 14 12 8 6 7 8 8 8 10 8 17 18 15 15 12 8 13 17 18 12 6 5 5 12 5 4 6 10 16 11 8 14 12 19 30 29 28 27 22 17
81 83 79 72 61 55 52 46 45 41 37 29 23 18 14 12 10 8 7 10 14 6 10 9 16 8 15 15 13 12 13 14 12 7 4 4 5 5 1 3 7 24 14 11 10 24 14 11 32 35 34 27 20 14
76 79 79 76 69 57 51 49 48 45 40 32 26 23 19 16 12 9 7 10 14 15 7 6 2 5 15 17 15 5 7 8 6 5 4 4 4 4 3 5 16 29 39 43 12 20 16 28 35 33 25 18 13 12
79 73 73 79 72 66 57 50 51 48 43 35 29 26 19 19 16 9 4 8 16 17 6 10 3 5 15 17 11 8 2 4 4 4 3 1 4 3 5 8 11 17 27 39 26 30 30 42 24 26 19 18 17 15
85 77 71 69 81 68 61 54 48 48 47 37 32 28 19 17 13 12 8 8 18 9 6 6 3 2 18 8 6 7 6 5 2 3 2 4 4 2 9 26 20 12 22 31 37 39 25 33 28 27 22 19 18 15
89 81 78 70 74 72 64 54 48 48 46 39 35 26 15 13 10 12 14 16 19 6 7 8 9 8 20 8 7 8 4 4 1 1 3 3 3 11 18 22 22 33 22 21 36 36 37 33 29 27 25 23 20 16
95 86 80 74 70 72 66 59 52 53 52 47 34 15 12 15 16 14 12 10 14 10 9 6 16 6 15 9 5 6 2 3 1 6 2 6 8 55 50 33 3 22 34 18 39 37 40 39 35 31 26 22 21 16
97 92 86 81 74 74 68 65 59 61 59 51 21 13 17 24 18 10 5 4 6 2 13 12 11 11 15 8 7 7 5 4 1 7 6 5 7 13 7 11 46 34 20 38 31 22 25 24 32 35 35 33 25 18
97 97 89 88 79 73 78 71 69 82 53 43 23 31 25 11 7 7 4 3 5 11 19 21 14 13 15 11 9 8 6 3 8 2 2 7 9 19 19 12 19 52 47 33 37 26 28 26 30 35 35 27 17 20
100 97 92 93 86 78 81 77 78 78 55 45 16 16 12 8 7 15 15 7 4 22 27 29 13 13 12 7 11 6 6 9 7 2 8 10 15 10 9 14 12 31 57 48 40 37 35 30 34 33 26 19 19 25
105 100 96 95 92 84 82 85 85 80 62 15 20 9 12 6 11 11 9 9 16 24 58 56 21 10 10 7 8 9 4 5 3 2 12 6 7 18 10 14 17 22 32 40 46 45 43 38 38 34 25 21 24 29
107 100 99 96 98 89 85 93 86 84 30 15 16 13 12 16 8 20 23 30 25 64 79 30 16 8 5 8 5 8 5 8 11 10 7 8 14 16 24 23 22 21 24 30 36 42 44 45 42 34 25 25 29 32
107 97 105 103 104 94 91 98 88 73 13 12 15 5 6 13 7 26 33 32 60 77 48 10 10 7 2 9 7 16 13 12 8 7 13 13 17 17 16 14 12 13 17 24 31 35 40 45 39 34 33 31 32 35
114 93 117 109 110 101 115 100 59 26 22 15 14 36 33 15 25 33 42 49 83 73 7 12 11 12 12 5 5 9 11 7 11 17 16 14 13 12 10 9 8 17 25 32 37 41 46 46 49 48 43 34 32 36
118 107 114 116 120 124 113 53 41 30 22 17 12 29 58 7 27 44 37 77 60 34 27 13 21 8 12 12 7 10 31 15 15 17 12 13 15 18 21 11 11 16 25 37 46 51 56 60 61 57 44 40 36 37
127 119 123 130 141 95 40 36 32 20 18 25 28 27 38 19 22 48 49 92 34 47 26 22 8 9 8 17 15 22 22 16 7 10 9 8 12 18 25 26 24 29 32 36 47 56 63 69 67 56 51 45 39 37
139 133 132 147 138 45 23 17 47 17 18 22 36 43 26 18 31 39 56 75 42 22 9 7 10 17 19 27 27 4 18 27 31 29 30 33 26 22 29 34 37 32 35 38 43 53 62 69 72 67 55 45 43 39
121 139 141 142 104 43 27 24 21 22 27 18 44 53 18 41 33 34 37 69 24 13 10 21 33 32 23 19 20 35 43 38 45 43 36 37 35 34 35 34 34 37 41 43 49 55 62 68 67 58 49 47 41 36
106 152 122 100 41 31 17 30 29 32 23 27 44 34 19 15 21 33 42 25 19 35 32 41 42 40 41 45 52 61 58 53 50 50 49 43 41 42 38 37 39 43 45 47 49 51 54 59 57 52 47 43 39 37
145 118 90 43 18 19 14 50 14 18 11 16 32 12 6 11 26 42 17 20 29 45 62 59 53 60 65 68 71 71 67 59 52 46 42 41 38 43 46 41 39 41 42 42 43 46 47 46 48 48 45 43 40 37
121 62 27 34 22 12 34 11 18 17 14 11 15 11 8 15 36 15 8 15 44 45 54 64 70 69 74 77 81 82 70 55 44 41 42 41 39 34 31 29 28 30 33 35 37 37 39 37 37 41 41 39 38 35
21 23 28 13 21 16 11 12 9 7 9 8 10 6 7 17 7 8 7 12 37 56 57 59 66 77 83 75 50 40 33 27 31 35 35 36 37 35 32 28 29 30 30 31 29 29 31 35 37 37 37 38 36 33
13 14 16 23 8 27 15 15 14 13 10 9 6 14 13 7 9 11 9 29 42 50 60 69 74 74 72 63 51 50 47 41 37 39 35 32 30 32 31 32 33 28 26 27 29 32 33 34 35 36 38 38 34 35
13 10 16 52 39 32 16 16 21 13 8 13 12 11 9 12 15 7 17 35 40 45 52 54 53 49 43 37 37 36 35 33 30 27 25 26 27 32 36 37 35 30 32 30 30 30 30 32 35 38 37 35 34 34
12 26 34 34 37 26 13 9 9 11 12 24 24 14 23 16 9 14 16 27 30 35 36 35 34 31 29 30 28 26 27 26 25 23 24 25 24 25 28 30 30 32 30 25 24 26 27 27 30 32 32 33 33 30
12 54 59 41 18 11 7 9 9 9 31 36 10 8 10 10 11 12 16 20 25 26 25 23 21 19 18 16 15 16 19 19 19 19 17 16 16 17 22 24 25 24 21 19 23 25 25 26 27 27 31 30 27 22
32 63 26 29 11 7 6 8 17 36 28 33 30 24 18 17 17 17 16 17 16 17 17 17 16 14 12 10 10 9 8 8 9 11 12 12 13 15 16 16 16 15 15 21 28 33 36 34 35 36 31 26 18 14
26 36 17 14 10 10 35 53 55 51 28 25 30 29 28 21 21 20 17 16 15 15 13 12 13 12 9 6 4 2 3 5 6 6 6 8 9 9 9 9 11 15 19 21 21 22 27 31 30 27 23 16 12 13
16 10 13 11 7 21 19 13 15 18 15 16 16 16 14 13 10 9 11 12 12 11 10 9 8 8 8 6 4 2 1 1 2 3 3 3 3 5 9 12 15 18 20 24 26 28 28 26 25 20 15 11 13 20
24 42 37 19 11 9 10 17 13 11 20 12 15 11 11 10 10 9 9 8 9 10 9 8 7 7 6 4 3 1 1 2 4 4 4 5 8 13 18 21 23 25 28 29 30 29 27 23 18 14 12 17 24 31
Wind_Direction_500mb
200 203 208 208 209 206 209 209 204 192 180 171 160 150 111 95 94 120 131 132 143 126 152 177 176 161 151 169 136 164 79 360 52 70 115 206 112 219 77 211 184 172 135 185 83 75 278 189 133 166 160 141 142 140
201 204 210 211 210 210 210 217 209 204 192 183 183 193 214 93 143 132 114 112 120 127 145 160 156 156 157 144 134 149 159 144 146 84 54 86 38 37 146 247 165 266 184 180 185 217 277 196 7 130 153 144 145 146
206 205 210 216 213 211 211 213 216 211 203 195 187 197 232 260 236 185 163 151 129 115 126 147 151 150 152 148 156 161 183 171 173 145 142 131 142 121 162 246 206 238 196 188 75 246 240 230 147 142 152 163 169 176
210 208 211 218 219 222 220 219 217 211 210 204 196 191 213 231 232 224 195 201 187 133 117 173 172 167 166 167 160 163 168 159 157 158 140 138 146 195 220 223 190 209 148 180 269 265 249 262 213 197 179 172 174 173
208 211 213 215 220 216 222 223 218 215 212 211 205 199 209 220 224 225 215 204 209 191 144 126 156 161 175 176 169 159 162 167 168 153 112 214 173 132 324 13 243 192 180 170 215 212 183 181 185 178 177 181 183 200
208 208 207 211 215 217 218 220 218 215 217 213 214 210 207 208 203 207 219 216 194 184 153 102 152 49 147 142 151 130 140 170 156 140 148 173 155 181 143 228 251 209 214 215 196 169 173 152 157 165 175 184 216 223
207 208 205 206 211 213 214 210 215 214 215 207 216 222 204 205 205 214 183 160 174 170 156 103 82 122 151 157 167 172 102 89 110 127 115 96 197 236 184 232 235 211 215 211 204 173 158 168 177 184 199 199 199 199
211 204 206 202 207 209 209 206 205 207 211 202 203 218 218 206 208 217 209 148 160 175 150 108 75 139 166 156 136 186 180 179 44 62 237 210 226 293 253 238 231 222 178 191 198 208 210 197 202 201 201 206 208 204
210 206 203 203 201 205 203 199 194 185 193 184 199 207 182 187 199 218 193 189 192 207 160 126 139 199 164 115 116 146 169 35 339 113 264 193 272 229 231 248 239 204 188 191 195 205 215 215 209 207 214 209 207 201
206 208 200 200 197 198 200 195 186 173 164 172 181 164 188 183 178 165 164 193 195 205 200 130 133 138 160 142 117 98 160 198 328 242 241 232 258 259 255 249 215 201 212 202 187 189 197 205 212 213 212 204 196 220
204 206 200 198 198 193 193 192 180 167 170 171 168 171 162 158 156 179 190 155 182 332 192 148 153 135 160 123 155 176 180 114 304 266 147 283 275 248 245 234 219 213 208 215 223 236 222 219 212 207 195 192 207 246
203 203 200 196 197 192 190 190 177 175 176 171 165 140 142 174 167 103 214 342 195 214 164 146 140 121 136 138 119 144 152 139 239 144 67 267 251 242 232 229 205 204 201 201 203 203 194 204 203 194 194 205 239 283
200 199 199 196 195 191 189 189 185 183 167 149 167 157 161 159 60 176 195 237 233 176 170 154 137 140 131 138 97 112 117 208 132 63 234 235 260 247 233 206 189 187 195 198 198 202 208 206 200 200 210 238 281 298
198 198 196 195 196 190 187 185 188 182 167 177 164 183 184 196 240 192 185 169 155 161 153 148 122 135 128 94 141 107 242 81 60 271 235 247 274 204 192 166 161 165 184 204 215 219 220 216 210 212 230 268 293 299
197 196 195 193 194 191 185 187 190 183 185 197 183 213 190 200 169 168 154 133 137 156 151 122 94 126 78 103 75 105 67 250 216 230 233 226 187 171 174 166 163 174 192 202 207 210 214 213 211 220 245 274 288 296
192 191 196 190 190 189 182 184 182 183 224 228 229 134 135 140 155 167 164 145 152 152 151 132 114 75 218 136 117 207 149 224 240 220 207 156 155 154 170 183 197 212 222 223 219 215 211 213 220 235 253 272 285 293
185 187 192 187 186 184 178 170 168 176 204 214 232 219 187 198 181 171 171 165 161 159 161 136 120 183 116 62 246 194 204 215 207 177 168 183 193 178 183 168 241 257 256 247 238 229 226 225 233 241 252 271 282 287
186 184 187 182 179 172 171 176 176 194 213 198 185 200 199 201 178 171 171 168 159 189 158 183 131 142 180 184 231 220 224 191 152 157 184 212 218 222 205 213 239 265 270 260 250 242 236 239 244 249 255 268 278 280
182 181 182 178 172 162 168 183 185 187 190 174 191 198 186 199 195 193 178 173 177 173 154 162 120 182 209 207 197 162 164 185 219 278 263 250 262 266 245 238 258 277 267 262 256 251 250 250 251 252 257 267 278 276
181 180 178 176 173 167 167 171 191 183 166 180 181 180 175 189 188 181 178 174 170 169 171 178 207 212 198 169 158 302 280 270 264 256 270 290 291 260 256 260 276 274 262 261 261 258 253 247 245 247 256 269 272 270
173 172 175 174 173 181 177 156 170 194 170 179 179 174 156 159 154 163 168 181 183 210 216 216 205 208 205 194 253 272 263 264 268 272 279 283 287 280 278 274 269 268 263 262 261 262 259 254 252 252 259 270 267 260
167 163 163 172 178 174 176 176 166 147 149 153 166 178 145 160 156 173 164 185 216 214 210 216 214 215 231 244 260 265 266 265 266 272 280 282 282 283 281 284 275 272 272 272 271 271 269 263 256 255 263 263 256 247
160 160 165 166 153 163 144 148 121 142 130 157 142 114 167 162 170 160 196 218 213 217 222 226 228 238 247 254 257 261 264 267 269 274 280 283 283 281 281 280 275 273 272 272 273 272 272 267 258 258 257 251 243 234
159 155 158 161 152 140 152 137 129 114 108 164 159 148 141 146 158 196 233 220 221 220 221 231 236 239 246 252 257 261 265 271 273 278 282 279 278 273 265 258 260 268 272 271 268 268 266 258 253 250 245 237 229 223
140 168 156 138 151 127 118 129 127 132 134 163 111 137 172 157 165 200 220 213 204 209 222 231 238 243 246 248 258 261 258 268 275 276 271 266 264 258 250 250 259 263 266 268 268 260 254 254 249 240 232 224 219 217
147 148 147 158 122 171 165 139 160 142 127 125 86 123 144 136 161 226 203 186 192 204 214 225 232 238 243 248 256 264 269 269 267 266 264 253 245 242 244 246 253 263 267 263 256 257 253 245 235 227 218 212 206 207
139 134 147 167 155 117 96 105 137 134 127 144 159 158 158 167 206 206 181 183 192 202 214 227 237 244 251 254 254 252 251 252 250 253 249 249 247 246 247 253 262 266 263 261 257 254 249 239 226 214 208 203 200 200
123 146 155 158 159 140 112 100 122 160 154 147 134 166 173 185 172 169 178 185 196 204 215 227 234 238 240 240 239 238 237 235 234 235 237 239 240 245 248 254 262 265 263 258 248 241 231 217 211 206 200 198 197 200
123 154 143 145 115 66 88 146 154 113 137 163 122 127 134 104 124 144 154 176 188 199 209 219 224 226 229 231 228 225 225 226 229 234 239 249 260 265 262 261 265 267 262 245 226 206 196 192 188 185 185 187 194 207
146 145 132 138 94 82 17 66 115 134 130 128 120 111 101 102 100 120 135 149 166 181 195 207 210 217 226 226 226 222 221 232 247 249 253 253 259 268 273 273 267 256 230 207 199 191 185 177 173 175 181 188 202 231
121 120 78 57 82 65 104 110 109 108 102 86 97 110 114 122 112 96 109 128 139 148 152 162 162 162 162 167 182 176 211 250 247 252 263 275 279 274 259 236 211 197 191 186 184 179 173 168 170 175 183 197 226 270
55 71 118 105 109 134 102 79 67 64 56 63 60 78 99 97 85 100 82 112 132 139 149 144 138 135 135 129 126 130 194 224 254 304 292 271 240 197 181 171 165 164 162 162 160 159 162 168 174 185 200 232 277 301
83 83 92 104 112 135 132 101 70 84 49 61 51 54 62 79 94 72 81 93 115 127 136 136 136 134 136 150 160 173 173 185 143 116 127 132 139 142 145 150 156 159 162 160 158 163 170 179 191 209 246 281 302 313
Wind_Speed_850mb
63 56 53 49 43 37 31 28 25 21 17 14 13 10 6 8 11 7 16 12 11 14 25 14 11 8 9 7 7 9 7 2 6 7 6 5 5 7 4 5 8 10 9 4 5 7 11 11 3 9 7 45 36 29
71 64 57 53 48 43 38 36 32 28 23 19 15 12 5 0 4 6 8 15 18 13 17 17 17 16 12 9 12 14 2 4 5 8 2 5 4 4 5 4 3 3 10 7 13 8 6 10 3 7 43 46 28 22
80 74 64 58 51 47 39 37 38 34 28 23 19 16 12 7 3 3 6 8 10 18 17 18 14 17 17 15 14 8 10 9 8 7 12 4 4 6 5 8 5 8 15 2 4 4 21 17 11 25 33 25 21 17
89 80 77 69 59 52 45 38 40 38 34 26 21 17 14 12 8 6 7 8 8 8 10 8 17 18 15 15 12 8 13 17 18 12 6 5 5 12 5 4 6 10 16 11 8 14 12 19 30 29 28 27 22 17
81 83 79 72 61 55 52 46 45 41 37 29 23 18 14 12 10 8 7 10 14 6 10 9 16 8 15 15 13 12 13 14 12 7 4 4 5 5 1 3 7 24 14 11 10 24 14 11 32 35 34 27 20 14
76 79 79 76 69 57 51 49 48 45 40 32 26 23 19 16 12 9 7 10 14 15 7 6 2 5 15 17 15 5 7 8 6 5 4 4 4 4 3 5 16 29 39 43 12 20 16 28 35 33 25 18 13 12
79 73 73 79 72 66 57 50 51 48 43 35 29 26 19 19 16 9 4 8 16 17 6 10 3 5 15 17 11 8 2 4 4 4 3 1 4 3 5 8 11 17 27 39 26 30 30 42 24 26 19 18 17 15
85 77 71 69 81 68 61 54 48 48 47 37 32 28 19 17 13 12 8 8 18 9 6 6 3 2 18 8 6 7 6 5 2 3 2 4 4 2 9 26 20 12 22 31 37 39 25 33 28 27 22 19 18 15
89 81 78 70 74 72 64 54 48 48 46 39 35 26 15 13 10 12 14 16 19 6 7 8 9 8 20 8 7 8 4 4 1 1 3 3 3 11 18 22 22 33 22 21 36 36 37 33 29 27 25 23 20 16
95 86 80 74 70 72 66 59 52 53 52 47 34 15 12 15 16 14 12 10 14 10 9 6 16 6 15 9 5 6 2 3 1 6 2 6 8 55 50 33 3 22 34 18 39 37 40 39 35 31 26 22 21 16
97 92 86 81 74 74 68 65 59 61 59 51 21 13 17 24 18 10 5 4 6 2 13 12 11 11 15 8 7 7 5 4 1 7 6 5 7 13 7 11 46 34 20 38 31 22 25 24 32 35 35 33 25 18
97 97 89 88 79 73 78 71 69 82 53 43 23 31 25 11 7 7 4 3 5 11 19 21 14 13 15 11 9 8 6 3 8 2 2 7 9 19 19 12 19 52 47 33 37 26 28 26 30 35 35 27 17 20
100 97 92 93 86 78 81 77 78 78 55 45 16 16 12 8 7 15 15 7 4 22 27 29 13 13 12 7 11 6 6 9 7 2 8 10 15 10 9 14 12 31 57 48 40 37 35 30 34 33 26 19 19 25
105 100 96 95 92 84 82 85 85 80 62 15 20 9 12 6 11 11 9 9 16 24 58 56 21 10 10 7 8 9 4 5 3 2 12 6 7 18 10 14 17 22 32 40 46 45 43 38 38 34 25 21 24 29
107 100 99 96 98 89 85 93 86 84 30 15 16 13 12 16 8 20 23 30 25 64 79 30 16 8 5 8 5 8 5 8 11 10 7 8 14 16 24 23 22 21 24 30 36 42 44 45 42 34 25 25 29 32
107 97 105 103 104 94 91 98 88 73 13 12 15 5 6 13 7 26 33 32 60 77 48 10 10 7 2 9 7 16 13 12 8 7 13 13 17 17 16 14 12 13 17 24 31 35 40 45 39 34 33 31 32 35
114 93 117 109 110 101 115 100 59 26 22 15 14 36 33 15 25 33 42 49 83 73 7 12 11 12 12 5 5 9 11 7 11 17 16 14 13 12 10 9 8 17 25 32 37 41 46 46 49 48 43 34 32 36
118 107 114 116 120 124 113 53 41 30 22 17 12 29 58 7 27 44 37 77 60 34 27 13 21 8 12 12 7 10 31 15 15 17 12 13 15 18 21 11 11 16 25 37 46 51 56 60 61 57 44 40 36 37
127 119 123 130 141 95 40 36 32 20 18 25 28 27 38 19 22 48 49 92 34 47 26 22 8 9 8 17 15 22 22 16 7 10 9 8 12 18 25 26 24 29 32 36 47 56 63 69 67 56 51 45 39 37
139 133 132 147 138 45 23 17 47 17 18 22 36 43 26 18 31 39 56 75 42 22 9 7 10 17 19 27 27 4 18 27 31 29 30 33 26 22 29 34 37 32 35 38 43 53 62 69 72 67 55 45 43 39
121 139 141 142 104 43 27 24 21 22 27 18 44 53 18 41 33 34 37 69 24 13 10 21 33 32 23 19 20 35 43 38 45 43 36 37 35 34 35 34 34 37 41 43 49 55 62 68 67 58 49 47 41 36
106 152 122 100 41 31 17 30 29 32 23 27 44 34 19 15 21 33 42 25 19 35 32 41 42 40 41 45 52 61 58 53 50 50 49 43 41 42 38 37 39 43 45 47 49 51 54 59 57 52 47 43 39 37
145 118 90 43 18 19 14 50 14 18 11 16 32 12 6 11 26 42 17 20 29 45 62 59 53 60 65 68 71 71 67 59 52 46 42 41 38 43 46 41 39 41 42 42 43 46 47 46 48 48 45 43 40 37
121 62 27 34 22 12 34 11 18 17 14 11 15 11 8 15 36 15 8 15 44 45 54 64 70 69 74 77 81 82 70 55 44 41 42 41 39 34 31 29 28 30 33 35 37 37 39 37 37 41 41 39 38 35
21 23 28 13 21 16 11 12 9 7 9 8 10 6 7 17 7 8 7 12 37 56 57 59 66 77 83 75 50 40 33 27 31 35 35 36 37 35 32 28 29 30 30 31 29 29 31 35 37 37 37 38 36 33
13 14 16 23 8 27 15 15 14 13 10 9 6 14 13 7 9 11 9 29 42 50 60 69 74 74 72 63 51 50 47 41 37 39 35 32 30 32 31 32 33 28 26 27 29 32 33 34 35 36 38 38 34 35
13 10 16 52 39 32 16 16 21 13 8 13 12 11 9 12 15 7 17 35 40 45 52 54 53 49 43 37 37 36 35 33 30 27 25 26 27 32 36 37 35 30 32 30 30 30 30 32 35 38 37 35 34 34
12 26 34 34 37 26 13 9 9 11 12 24 24 14 23 16 9 14 16 27 30 35 36 35 34 31 29 30 28 26 27 26 25 23 24 25 24 25 28 30 30 32 30 25 24 26 27 27 30 32 32 33 33 30
12 54 59 41 18 11 7 9 9 9 31 36 10 8 10 10 11 12 16 20 25 26 25 23 21 19 18 16 15 16 19 19 19 19 17 16 16 17 22 24 25 24 21 19 23 25 25 26 27 27 31 30 27 22
32 63 26 29 11 7 6 8 17 36 28 33 30 24 18 17 17 17 16 17 16 17 17 17 16 14 12 10 10 9 8 8 9 11 12 12 13 15 16 16 16 15 15 21 28 33 36 34 35 36 31 26 18 14
26 36 17 14 10 10 35 53 55 51 28 25 30 29 28 21 21 20 17 16 15 15 13 12 13 12 9 6 4 2 3 5 6 6 6 8 9 9 9 9 11 15 19 21 21 22 27 31 30 27 23 16 12 13
16 10 13 11 7 21 19 13 15 18 15 16 16 16 14 13 10 9 11 12 12 11 10 9 8 8 8 6 4 2 1 1 2 3 3 3 3 5 9 12 15 18 20 24 26 28 28 26 25 20 15 11 13 20
24 42 37 19 11 9 10 17 13 11 20 12 15 11 11 10 10 9 9 8 9 10 9 8 7 7 6 4 3 1 1 2 4 4 4 5 8 13 18 21 23 25 28 29 30 29 27 23 18 14 12 17 24 31
Wind_Direction_850mb
200 203 208 208 209 206 209 209 204 192 180 171 160 150 111 95 94 120 131 132 143 126 152 177 176 161 151 169 136 164 79 360 52 70 115 206 112 219 77 211 184 172 135 185 83 75 278 189 133 166 160 141 142 140
201 204 210 211 210 210 210 217 209 204 192 183 183 193 214 93 143 132 114 112 120 127 145 160 156 156 157 144 134 149 159 144 146 84 54 86 38 37 146 247 165 266 184 180 185 217 277 196 7 130 153 144 145 146
206 205 210 216 213 211 211 213 216 211 203 195 187 197 232 260 236 185 163 151 129 115 126 147 151 150 152 148 156 161 183 171 173 145 142 131 142 121 162 246 206 238 196 188 75 246 240 230 147 142 152 163 169 176
210 208 211 218 219 222 220 219 217 211 210 204 196 191 213 231 232 224 195 201 187 133 117 173 172 167 166 167 160 163 168 159 157 158 140 138 146 195 220 223 190 209 148 180 269 265 249 262 213 197 179 172 174 173
208 211 213 215 220 216 222 223 218 215 212 211 205 199 209 220 224 225 215 204 209 191 144 126 156 161 175 176 169 159 162 167 168 153 112 214 173 132 324 13 243 192 180 170 215 212 183 181 185 178 177 181 183 200
208 208 207 211 215 217 218 220 218 215 217 213 214 210 207 208 203 207 219 216 194 184 153 102 152 49 147 142 151 130 140 170 156 140 148 173 155 181 143 228 251 209 214 215 196 169 173 152 157 165 175 184 216 223
207 208 205 206 211 213 214 210 215 214 215 207 216 222 204 205 205 214 183 160 174 170 156 103 82 122 151 157 167 172 102 89 110 127 115 96 197 236 184 232 235 211 215 211 204 173 158 168 177 184 199 199 199 199
211 204 206 202 207 209 209 206 205 207 211 202 203 218 218 206 208 217 209 148 160 175 150 108 75 139 166 156 136 186 180 179 44 62 237 210 226 293 253 238 231 222 178 191 198 208 210 197 202 201 201 206 208 204
210 206 203 203 201 205 203 199 194 185 193 184 199 207 182 187 199 218 193 189 192 207 160 126 139 199 164 115 116 146 169 35 339 113 264 193 272 229 231 248 239 204 188 191 195 205 215 215 209 207 214 209 207 201
206 208 200 200 197 198 200 195 186 173 164 172 181 164 188 183 178 165 164 193 195 205 200 130 133 138 160 142 117 98 160 198 328 242 241 232 258 259 255 249 215 201 212 202 187 189 197 205 212 213 212 204 196 220
204 206 200 198 198 193 193 192 180 167 170 171 168 171 162 158 156 179 190 155 182 332 192 148 153 135 160 123 155 176 180 114 304 266 147 283 275 248 245 234 219 213 208 215 223 236 222 219 212 207 195 192 207 246
203 203 200 196 197 192 190 190 177 175 176 171 165 140 142 174 167 103 214 342 195 214 164 146 140 121 136 138 119 144 152 139 239 144 67 267 251 242 232 229 205 204 201 201 203 203 194 204 203 194 194 205 239 283
200 199 199 196 195 191 189 189 185 183 167 149 167 157 161 159 60 176 195 237 233 176 170 154 137 140 131 138 97 112 117 208 132 63 234 235 260 247 233 206 189 187 195 198 198 202 208 206 200 200 210 238 281 298
198 198 196 195 196 190 187 185 188 182 167 177 164 183 184 196 240 192 185 169 155 161 153 148 122 135 128 94 141 107 242 81 60 271 235 247 274 204 192 166 161 165 184 204 215 219 220 216 210 212 230 268 293 299
197 196 195 193 194 191 185 187 190 183 185 197 183 213 190 200 169 168 154 133 137 156 151 122 94 126 78 103 75 105 67 250 216 230 233 226 187 171 174 166 163 174 192 202 207 210 214 213 211 220 245 274 288 296
192 191 196 190 190 189 182 184 182 183 224 228 229 134 135 140 155 167 164 145 152 152 151 132 114 75 218 136 117 207 149 224 240 220 207 156 155 154 170 183 197 212 222 223 219 215 211 213 220 235 253 272 285 293
185 187 192 187 186 184 178 170 168 176 204 214 232 219 187 198 181 171 171 165 161 159 161 136 120 183 116 62 246 194 204 215 207 177 168 183 193 178 183 168 241 257 256 247 238 229 226 225 233 241 252 271 282 287
186 184 187 182 179 172 171 176 176 194 213 198 185 200 199 201 178 171 171 168 159 189 158 183 131 142 180 184 231 220 224 191 152 157 184 212 218 222 205 213 239 265 270 260 250 242 236 239 244 249 255 268 278 280
182 181 182 178 172 162 168 183 185 187 190 174 191 198 186 199 195 193 178 173 177 173 154 162 120 182 209 207 197 162 164 185 219 278 263 250 262 266 245 238 258 277 267 262 256 251 250 250 251 252 257 267 278 276
181 180 178 176 173 167 167 171 191 183 166 180 181 180 175 189 188 181 178 174 170 169 171 178 207 212 198 169 158 302 280 270 264 256 270 290 291 260 256 260 276 274 262 261 261 258 253 247 245 247 256 269 272 270
173 172 175 174 173 181 177 156 170 194 170 179 179 174 156 159 154 163 168 181 183 210 216 216 205 208 205 194 253 272 263 264 268 272 279 283 287 280 278 274 269 268 263 262 261 262 259 254 252 252 259 270 267 260
167 163 163 172 178 174 176 176 166 147 149 153 166 178 145 160 156 173 164 185 216 214 210 216 214 215 231 244 260 265 266 265 266 272 280 282 282 283 281 284 275 272 272 272 271 271 269 263 256 255 263 263 256 247
160 160 165 166 153 163 144 148 121 142 130 157 142 114 167 162 170 160 196 218 213 217 222 226 228 238 247 254 257 261 264 267 269 274 280 283 283 281 281 280 275 273 272 272 273 272 272 267 258 258 257 251 243 234
159 155 158 161 152 140 152 137 129 114 108 164 159 148 141 146 158 196 233 220 221 220 221 231 236 239 246 252 257 261 265 271 273 278 282 279 278 273 265 258 260 268 272 271 268 268 266 258 253 250 245 237 229 223
140 168 156 138 151 127 118 129 127 132 134 163 111 137 172 157 165 200 220 213 204 209 222 231 238 243 246 248 258 261 258 268 275 276 271 266 264 258 250 250 259 263 266 268 268 260 254 254 249 240 232 224 219 217
147 148 147 158 122 171 165 139 160 142 127 125 86 123 144 136 161 226 203 186 192 204 214 225 232 238 243 248 256 264 269 269 267 266 264 253 245 242 244 246 253 263 267 263 256 257 253 245 235 227 218 212 206 207
139 134 147 167 155 117 96 105 137 134 127 144 159 158 158 167 206 206 181 183 192 202 214 227 237 244 251 254 254 252 251 252 250 253 249 249 247 246 247 253 262 266 263 261 257 254 249 239 226 214 208 203 200 200
123 146 155 158 159 140 112 100 122 160 154 147 134 166 173 185 172 169 178 185 196 204 215 227 234 238 240 240 239 238 237 235 234 235 237 239 240 245 248 254 262 265 263 258 248 241 231 217 211 206 200 198 197 200
123 154 143 145 115 66 88 146 154 113 137 163 122 127 134 104 124 144 154 176 188 199 209 219 224 226 229 231 228 225 225 226 229 234 239 249 260 265 262 261 265 267 262 245 226 206 196 192 188 185 185 187 194 207
146 145 132 138 94 82 17 66 115 134 130 128 120 111 101 102 100 120 135 149 166 181 195 207 210 217 226 226 226 222 221 232 247 249 253 253 259 268 273 273 267 256 230 207 199 191 185 177 173 175 181 188 202 231
121 120 78 57 82 65 104 110 109 108 102 86 97 110 114 122 112 96 109 128 139 148 152 162 162 162 162 167 182 176 211 250 247 252 263 275 279 274 259 236 211 197 191 186 184 179 173 168 170 175 183 197 226 270
55 71 118 105 109 134 102 79 67 64 56 63 60 78 99 97 85 100 82 112 132 139 149 144 138 135 135 129 126 130 194 224 254 304 292 271 240 197 181 171 165 164 162 162 160 159 162 168 174 185 200 232 277 301
83 83 92 104 112 135 132 101 70 84 49 61 51 54 62 79 94 72 81 93 115 127 136 136 136 134 136 150 160 173 173 185 143 116 127 132 139 142 145 150 156 159 162 160 158 163 170 179 191 209 246 281 302 313